Location: Waco, TX
(31.5480°N, 97.1670°W)
Time: 22:57:37
(UTC-05:00)

ISS - Pass Details

Date: 17 April 2018
Orbit: 403 x 406 km, 51.6° (Epoch: 23 April)

Event Time Altitude Azimuth Distance (km) Brightness Sun altitude
Rises 18:15:35 0° 325° (NW) 2,325 0.5 21.0°
Reaches altitude 10° 18:17:52 10° 338° (NNW) 1,463 -0.6 20.5°
Maximum altitude 18:20:45 27° 39° (NE) 806 -2.5 19.9°
Drops below altitude 10° 18:23:36 10° 100° (E) 1,459 -1.5 19.3°
Sets 18:25:52 0° 113° (ESE) 2,316 -0.5 18.8°
